Weather in Missoula

United States     46°52′17″N   113°59′35″W
temp.,
°C
wind,
m/s
gust,
m/s
humid.,
%
clouds,
%
prec.,
mm/h
press.,
hPa
HPBL,
m
16 may, sun
sun1600:00+8se11655 0.0 101410
03:00+7sse11761 0.0 101511
06:00+5sse11815 0.0 101611
09:00+14sse125184 0.0 1014394
12:00+22nw01272 0.0 10111629
15:00+24nw11194 0.0 10092243
18:00+23nnw222012 0.0 10071998
21:00+14n114446 0.0 100711
17 may, mon
mon1700:00+11sse11510 0.0 100911
03:00+9sse11560 0.0 100911
06:00+7sse11640 0.0 101011
09:00+15s12420 0.0 1008365
12:00+24sse03290 0.0 10051478
15:00+25w562025 0.0 10033363
18:00+24wnw56252 0.0 10022130
21:00+16nw38550 0.0 1005215
18 may, tue
tue1800:00+11wnw227446 0.0 100931
03:00+10w006088 0.0 100919
06:00+9nw1160100 0.0 101039
09:00+11nw444871 0.0 10111263
12:00+11wnw455193 0.0 10111368
15:00+13wnw694398 0.0 10101587
18:00+10wnw584741 0.0 10131536
21:00+6nw246457 0.0 1015151
19 may, wed
wed1900:00+2ssw007622 0.0 101711
03:00+1s008313 0.0 101710
06:00+1nne118394 0.0 101715
09:00+6n2252100 0.0 1014528
12:00+9nw3346100 0.0 10111264
15:00+6nw4581100 0.6 1011609
18:00+3n1297100 4.1 1012346
21:00+2nnw1299100 2.6 1013222
20 may, thu
thu2000:00+2nnw2399100 3.6 1013216
03:00+2n1199100 2.2 1013167
06:00+2n1298100 2.2 1013246
09:00+3nne2398100 0.5 1013335
12:00+4n2395100 1.7 1013412
15:00+5nnw2396100 0.6 1013510
18:00+4nne2394100 1.2 1013465
21:00+2ne1299100 1.9 1016204